DW9005 Weather Reports


Display with metric or nautical units.
time (UTC)temp
F
wind
direction
speed
MPH
gust
MPH
rain 1hr
in
rain 24hr
in
rain mn
in
humidity
%
barometer
mb
20260506061507 70 140 0.0 0.0 0.00 0.00 0.00 77 1012.0
20260506044601 71 186 0.0 0.0 0.00 0.00 0.00 76 1012.0
20260506041605 71 158 0.0 0.0 0.00 0.00 0.00 75 1011.7
20260506040057 71 252 0.0 0.0 0.00 0.00 0.00 75 1011.9
20260506034601 72 140 0.0 0.0 0.00 0.00 0.00 73 1011.8
20260506031536 72 181 0.0 0.0 0.00 0.00 0.00 71 1011.9
20260506030038 72 150 0.0 0.0 0.00 0.00 0.00 70 1011.5
20260506024518 71 177 0.0 0.0 0.00 0.00 0.00 69 1011.6
20260506023017 71 170 0.0 0.0 0.00 0.00 0.00 68 1011.8
20260506021505 72 169 0.0 0.0 0.00 0.00 0.00 67 1011.7
20260506020004 72 162 0.0 0.0 0.00 0.00 0.00 66 1011.4
20260506014504 71 162 0.0 0.0 0.00 0.00 0.00 67 1011.4
20260506013009 71 167 0.0 0.0 0.00 0.00 0.00 67 1011.6
20260506011510 72 169 0.0 0.0 0.00 0.00 0.00 66 1011.4
20260506010007 73 136 0.0 0.0 0.00 0.00 0.00 63 1011.5
20260506004504 73 138 0.0 0.0 0.00 0.00 0.00 62 1011.3
20260506003002 73 138 0.0 0.0 0.00 0.00 0.00 62 1011.3
20260506001553 74 171 0.0 0.0 0.00 0.00 0.00 62 1011.4
20260506000042 74 177 0.0 0.0 0.00 0.00 0.00 62 1011.6
20260505234524 74 154 0.0 0.0 0.00 0.00 0.00 61 1011.6
20260505233027 75 143 0.0 0.0 0.00 0.00 0.00 62 1011.9
20260505231505 75 176 0.0 0.0 0.00 0.00 0.00 61 1011.8
20260505230005 75 115 0.0 0.0 0.00 0.00 0.00 61 1012.0
20260505224546 75 169 0.0 0.0 0.00 0.00 0.00 61 1012.1
20260505223047 76 190 0.0 0.0 0.00 0.00 0.00 60 1012.0
20260505221536 76 181 0.0 0.0 0.00 0.00 0.00 61 1012.0
20260505220048 76 160 0.0 0.0 0.00 0.00 0.00 61 1012.1
20260505214536 76 132 0.0 0.0 0.00 0.00 0.00 60 1012.2
20260505213034 76 171 0.0 0.0 0.00 0.00 0.00 60 1012.2
20260505211531 75 225 0.0 0.0 0.00 0.00 0.00 60 1012.1
20260505210032 75 150 0.0 0.0 0.00 0.00 0.00 60 1012.2
20260505204528 75 171 0.0 0.0 0.00 0.00 0.00 60 1012.3
20260505203026 76 101 0.0 0.0 0.00 0.00 0.00 56 1012.4
20260505201506 77 140 0.0 0.0 0.00 0.00 0.00 56 1012.9
20260505200011 76 240 0.0 0.0 0.00 0.00 0.00 56 1013.1
20260505194548 76 157 0.0 0.0 0.00 0.00 0.00 56 1013.2
20260505193058 76 151 0.0 0.0 0.00 0.00 0.00 55 1013.3
20260505191528 76 157 0.0 0.0 0.00 0.00 0.00 56 1013.4
20260505190022 75 234 0.0 0.0 0.00 0.00 0.00 57 1013.7
20260505184502 74 184 0.0 0.0 0.00 0.00 0.00 60 1013.9
20260505183101 74 175 0.0 0.0 0.00 0.00 0.00 60 1014.1
20260505181549 73 179 0.0 0.0 0.00 0.00 0.00 58 1014.2
20260505180042 73 125 0.0 0.0 0.00 0.00 0.00 58 1014.3
20260505174525 75 61 0.0 0.0 0.00 0.00 0.00 57 1014.3
20260505173021 74 290 0.0 0.0 0.00 0.00 0.00 58 1014.6
20260505171505 73 194 0.0 0.0 0.00 0.00 0.00 60 1014.9
20260505170001 73 135 0.0 0.0 0.00 0.00 0.00 59 1015.0
20260505164546 72 177 0.0 0.0 0.00 0.00 0.00 58 1015.0
20260505163042 72 144 0.0 0.0 0.00 0.00 0.00 59 1015.1
20260505161536 72 176 0.0 0.0 0.00 0.00 0.00 60 1015.1
20260505153059 70 165 0.0 0.0 0.00 0.00 0.00 64 1015.3
20260505151545 70 182 0.0 0.0 0.00 0.00 0.00 66 1015.3
20260505130112 0 0.0 0.0 0.00 0.00 0.00 1015.3
20260505124543 0 0.0 0.0 0.00 0.00 0.00 1015.0
20260505123034 0 0.0 0.0 0.00 0.00 0.00 1014.9
20260505121528 0 0.0 0.0 0.00 0.00 0.00 1014.9
20260505120012 0 0.0 0.0 0.00 0.00 0.00 1014.7
20260505114555 0 0.0 0.0 0.00 0.00 0.00 1014.5
20260505113105 0 0.0 0.0 0.00 0.00 0.00 1014.3
20260505111536 0 0.0 0.0 0.00 0.00 0.00 1014.3
20260505101550 0 0.0 0.0 0.00 0.00 0.00 1014.3
20260505100041 0 0.0 0.0 0.00 0.00 0.00 1014.4
20260505094519 0 0.0 0.0 0.00 0.00 0.00 1014.5
20260505093015 0 0.0 0.0 0.00 0.00 0.00 1014.6
20260505091612 0 0.0 0.0 0.00 0.00 0.00 1014.8
20260505090053 0 0.0 0.0 0.00 0.00 0.00 1014.6
20260505084553 0 0.0 0.0 0.00 0.00 0.00 1014.7
20260505083029 0 0.0 0.0 0.00 0.00 0.00 1015.0
20260505081525 0 0.0 0.0 0.00 0.00 0.00 1015.0
20260505080037 0 0.0 0.0 0.00 0.00 0.00 1015.2
20260505074518 0 0.0 0.0 0.00 0.00 0.00 1015.2
20260505073025 0 0.0 0.0 0.00 0.00 0.00 1015.1
20260505071508 0 0.0 0.0 0.00 0.00 0.00 1015.0
20260505070004 0 0.0 0.0 0.00 0.00 0.00 1014.9